Location: Helion Bumpstead
(52.0500°N, 0.4000°E)
Time: 21:44:11
(UTC+00:00)

Cosmos 2237 Rocket - Pass Details

Date: 15 November 2025
Orbit: 835 x 847 km, 71.0° (Epoch: 06 December)

Event Time Altitude Azimuth Distance (km) Brightness Sun altitude
Exits shadow 05:19:30 30° 262° (W) 1,472 2.9 -18.1°
Maximum altitude 05:21:43 43° 311° (NW) 1,165 2.5 -17.8°
Drops below altitude 10° 05:27:06 10° 23° (NNE) 2,466 4.8 -16.9°
Sets 05:29:41 0° 30° (NNE) 3,402 5.6 -16.5°
